Regional Weather Roundup
Issued by NWS Charleston, SC

Current Version | Previous Version | Graphics & Text | Print | Product List | Glossary On
Versions: 1 2 3 4 5 6 7 8 9 10 11 12 13 14 15 16 17 18 19 20 21 22 23 24 25 26 27 28 29 30 31 32 33 34 35 36 37 38 39 40 41 42 43 44 45 46 47 48 49 50
000 ASUS42 KCHS 170625 RWRCHS REGIONAL WEATHER ROUNDUP NATIONAL WEATHER SERVICE CHARLESTON SC 200 AM EDT WED SEP 17 2014 NOTE: "FAIR" INDICATES FEW OR NO CLOUDS BELOW 12,000 FEET WITH NO SIGNIFICANT WEATHER AND/OR OBSTRUCTIONS TO VISIBILITY. NOT ALL STATIONS ARE QUALITY CONTROLLED BY THE NATIONAL WEATHER SERVICE. USE DATA WITH CAUTION...ESPECIALLY DEWPOINT OBSERVATIONS. SCZ027-030-031-034>040-042>050-170700- ...SOUTH CAROLINA... CITY SKY/WX TMP DP RH WIND PRES REMARKS N CHARLESTON MOCLDY 73 70 90 CALM 29.95S 6HR MIN TEMP: 72; 6HR MAX TEMP: 74; 6HR PCP: 0.12; WATERFRONT PRK N/A 79 N/A N/A CALM N/A FORT JOHNSON NOT AVBL MOUNT PLEASANT MOCLDY 72 72 100 CALM 29.94S FOG JOHNS ISLAND PTCLDY 73 73 100 CALM 29.93F PINOPOLIS N/A 75 70 83 SE3 29.87F MONCKS CORNER N/A 70 70 100 CALM 29.95S SUMMERVILLE NOT AVBL BEAUFORT MCAS CLOUDY 74 72 93 W5 29.93F 6HR MIN TEMP: 74; 6HR MAX TEMP: 76; 6HR PCP: 0.10; BEAUFORT ARPT FAIR 73 73 100 NW3 29.92F HILTON HEAD IS CLOUDY 75 75 100 CALM 29.93F FOG GEORGETOWN NOT AVBL WALTERBORO FOG 72 N/A N/A CALM 29.96S VSB 3/4 ORANGEBURG MOCLDY 71 68 90 SE3 29.94F 6HR MIN TEMP: 71; 6HR MAX TEMP: 76; 6HR PCP: TRACE; BARNWELL FAIR 72 70 94 CALM 29.94S AIKEN FAIR 68 68 100 CALM 29.98S MANNING FAIR 70 N/A N/A CALM 29.96S KINGSTREE NOT AVBL COLUMBIA MOCLDY 74 68 81 NE3 29.95R 6HR MIN TEMP: 73; 6HR MAX TEMP: 83; SUMTER MOCLDY 71 65 82 NE12 29.95F 6HR MIN TEMP: 71; 6HR MAX TEMP: 79; 6HR PCP: TRACE; FLORENCE CLOUDY 70 64 81 E8 29.98F 6HR MIN TEMP: 71; 6HR MAX TEMP: 77; MYRTLE BEACH CLOUDY 73 70 88 NW6 29.96F N MYRTLE BEACH MOCLDY 73 71 93 NE14G21 29.95F 6HR MIN TEMP: 73; 6HR MAX TEMP: 79; $$ GAZ063-065-086>088-099>101-113>116-118-119-134-136>141-150-170700- ...GEORGIA... CITY SKY/WX TMP DP RH WIND PRES REMARKS SAVANNAH ARPT PTCLDY 71 68 90 CALM 29.93F 6HR MIN TEMP: 71; 6HR MAX TEMP: 77; 6HR PCP: 0.07; HUNTER AAF PTCLDY 70 70 100 W2 29.91F 6HR MIN TEMP: 70; 6HR MAX TEMP: 75; 6HR PCP: 0.12; FORT STEWART MOCLDY 71 69 93 W5 29.92F 6HR MIN TEMP: 71; 6HR MAX TEMP: 78; 6HR PCP: TRACE; STATESBORO NOT AVBL SYLVANIA CLEAR 73 72 98 CALM 29.93F CLAXTON FAIR N/A N/A N/A CALM 29.94S THOMSON CLEAR 70 70 100 CALM 30.00S AUGUSTA-BUSH PTCLDY 73 70 90 W7 29.93F 6HR MIN TEMP: 72; 6HR MAX TEMP: 77; AUGUSTA-DANIEL PTCLDY 73 70 90 W5 29.95S SWAINSBORO FAIR 70 70 100 CALM 29.96F VIDALIA PTCLDY 70 70 100 CALM 29.95S ALMA PTCLDY 71 70 96 SW5 29.95F 6HR MIN TEMP: 71; 6HR MAX TEMP: 73; 6HR PCP: TRACE; WAYCROSS CLOUDY 74 73 98 SW3 29.94F JESUP FAIR 72 72 100 CALM 29.94F BRUNSWICK CLOUDY 73 70 88 W3 29.93F SAINT SIMONS CLOUDY 74 71 91 CALM 29.92F 6HR MIN TEMP: 74; 6HR MAX TEMP: 77; $$ SCZ027-028-034-036>038-045-046-048>050-GAZ119-141-170700- ...LAKE AND SUPPLEMENTAL COASTAL OBSERVATIONS... STATION/POSITION TIME TEMP WIND PRES WAVE SWELL AIR SEA DIR/SP/G HT/PER HT/PER/DIR (UTC) (F) (DEG/KT/KT) (MB) (FT/S) (FT/S/D) UPR LAKE MARION NOT AVBL WINYAH BAY 0600 71 330/ 4 1014.0S LAKE MURRAY 0600 75 30/ 2/ 4 1013.9R ACE BASIN NERRS 0600 73 CALM 1014.0S FORT PULASKI 0600 72 310/ 5/ 6 1013.6F SAPELO ISLAND 0600 74 310/ 5 1013.0F $$ ANZ835-935-AMZ111-154-330-350-352-354-374-450-454-472-170700- ...C-MAN AND BUOY OBSERVATIONS... STATION/POSITION TIME TEMP WIND PRES WAVE SWELL AIR SEA DIR/SP/G HT/PER HT/PER/DIR (UTC) (F) (DEG/KT/KT) (MB) (FT/S) (FT/S/D) FOLLY BEACH CMAN 0600 78 120/ 2/ 4 1014.0F BUOY 41004 0600 79 83 190/ 12/ 14 1012.5F 2/13 2/13 BUOY 41008 0600 76 84 CALM / 2 1012.7F 1/13 2/140/13 5E ST. MARYS GA 0600 83 N/A 2/13 FRYING PAN BUOY NOT AVBL BUOY 41025 0600 76 360/ 8/ 12 1013.8F 3/12 2/110/12 CAPE LOOKOUT NC 0600 72 350/ 13/ 16 1013.5F BUOY 41002 0540 79 82 220/ 10/ 12 1013.9F 5/15 5/110/15 BUOY 41010 0600 78 85 260/ 16/ 17 1014.5F 3/12 2/130/12 BUOY 41012 NOT AVBL ST AUGUSTINE FL 0600 74 250/ 7/ 9 1014.5F CAPERS NEARSHORE 0500 78 180/ 6/ 6 N/A FRIPP NEARSHORE NOT AVBL $$

USA.gov is the U.S. government's official web portal to all federal, state and local government web resources and services.